Hourly Weather Roundup
Issued by NWS Central Illinois

Home | Current Version | Previous Version | Text Only | Print | Product List | Glossary On
Versions: 1 2 3 4 5 6 7 8 9 10 11 12 13 14 15 16 17 18 19 20 21 22 23 24 25 26 27 28 29 30 31 32 33 34 35 36 37 38 39 40 41 42 43 44 45 46 47 48 49 50
000
NZUS43 KILX 121510
HWRILX

AREA WEATHER ROUNDUP
NATIONAL WEATHER SERVICE, LINCOLN IL
1000 AM CDT SAT JUL 12 2014


CITY           SKY/WX    TMP DP  RH WIND       PRES   REMARKS
BLOOMINGTON    CLOUDY    69  67  93 SE14      30.12R
CHAMPAIGN      TSTM      70  68  93 SE5       30.12S
DECATUR        CLOUDY    74  70  87 S8        30.10S
EFFINGHAM      CLOUDY    73  70  88 SE7       30.13S
FLORA          TSTM      73  70  92 E9        30.15R
GALESBURG      CLOUDY    80  71  73 CALM      30.04S HX  83
JACKSONVILLE   PTSUNNY   84  76  76 W9        30.08F HX  92
LACON          CLOUDY    73  70  89 S6        30.04S
LAWRENCEVILLE  LGT RAIN  72  69  90 CALM      30.18F FOG
LITCHFIELD     PTSUNNY   79  74  86 S7        30.11S HX  82
$$


CITY           SKY/WX    TMP DP  RH WIND       PRES   REMARKS
LINCOLN        CLOUDY    78  72  80 S6        30.05F HX  81
MACOMB         PTSUNNY   80  74  82 SW5       30.06F HX  85
MATTOON        CLOUDY    72  71  97 S10       30.12F
MT CARMEL AP   TSTM      73  70  88 CALM      30.18R
OLNEY-NOBLE AP TSTM      70  70 100 SE8       30.15F
PARIS          TSTM      70  69  96 SW7       30.14S
PEORIA         CLOUDY    81  69  67 CALM      30.06S HX  84
PONTIAC        CLOUDY    72  72 100 S12       30.08F
RANTOUL        HVY RAIN  71  68  90 S9        30.14R
ROBINSON       RAIN      72  70  94 CALM      30.18S
SPRINGFIELD    PTSUNNY   84  75  74 W7        30.08S HX  92
TAYLORVILLE    CLOUDY    77  72  83 S7        30.09S
$$

...REGIONAL REPORTS...


CITY           SKY/WX    TMP DP  RH WIND       PRES   REMARKS
CHICAGO O`HARE LGT RAIN  71  67  87 S7        30.05R FOG
KANKAKEE       TSTM      70  70  98 S13       30.09R
MOLINE         CLOUDY    77  71  82 W9        30.02R
MOUNT VERNON   CLOUDY    79  72  78 S7        30.14F HX  82
PITTSFIELD     MOSUNNY   86  72  62 W9        30.08F HX  92
QUINCY         MOSUNNY   83  72  69 SW9       30.06F HX  88
ROCKFORD       LGT RAIN  72  68  87 E9        29.97F
$$


CITY           SKY/WX    TMP DP  RH WIND       PRES   REMARKS
BURLINGTON     PTSUNNY   82  75  79 SW6       30.02F HX  89
CEDAR RAPIDS   CLOUDY    74  72  93 SW5       30.00S
DES MOINES     CLOUDY    77  72  84 S9        30.01F
KIRKSVILLE     CLOUDY    81  73  76 SW7       30.07S HX  86
OTTUMWA        PTSUNNY   79  71  76 CALM      30.02F HX  82
ST LOUIS       CLOUDY    84  73  69 SW8       30.10F HX  90
$$


CITY           SKY/WX    TMP DP  RH WIND       PRES   REMARKS
TERRE HAUTE    LGT RAIN  70  67  90 SW6       30.15S FOG
EVANSVILLE     CLOUDY    80  66  62 SW9       30.17S HX  82
INDIANAPOLIS   CLOUDY    76  64  66 SW12      30.15S
LAFAYETTE      LGT RAIN  71  67  87 S9        30.11F
MADISON        CLOUDY    77  67  71 N5        29.99F
MILWAUKEE      CLOUDY    74  65  73 SW7       30.03F
$$




USA.gov is the U.S. government's official web portal to all federal, state and local government web resources and services.